Tracking 28920 objects as of 25-May-2024
HD Live streaming from Space Station
objects crossing your sky now

FLOCK 4S 9

Track FLOCK 4S 9 now!
10-day predictions
FLOCK 4S 9 is classified as:


NORAD ID: 47478
Int'l Code: 2021-006BT
Perigee: 431.3 km
Apogee: 435.3 km
Inclination: 97.3 °
Period: 93.1 minutes
Semi major axis: 6804 km
RCS: Unknown
Launch date: January 24, 2021
Source: United States (US)
Launch site: ()
Your satellite tracking list
Your tracking list is empty




NASA's NSSDC Master Catalog

Two Line Element Set (TLE):
1 47478U 21006BT  24146.16991889  .00032797  00000-0  65454-3 0  9992
2 47478  97.3306 209.7452 0002903 290.1297  69.9640 15.46778039185382
Source of the keplerian elements: AFSPC